User: anonymous   Login
Location: Utrecht
(52.0830°N, 5.1330°E)
Time: 14:16:37
(UTC+02:00)
Language:

Cosmos 1092 Rocket - Orbit

View from above orbital plane
View from above orbital plane
View from above satellite
View from above satellite

Ground track
Ground track

The orbit data is extracted from the following two-line orbital elements,

1 11327U 79030B   16176.57497537 -.00000042  00000-0 -58138-4 0  9998
2 11327  82.9487 201.3852 0029181 100.3812  12.7256 13.76970913869924
Epoch (UTC): 24 June 2016 13:47:57
Eccentricity: 0.0029181
inclination: 82.9487°
perigee height: 953 km
apogee height: 996 km
right ascension of ascending node: 201.3852°
argument of perigee: 100.3812°
revolutions per day: 13.76970913
mean anomaly at epoch: 12.7256°
orbit number at epoch: 86992

The dashed part of the orbit path shows where the satellite is in the earth's shadow,  

DLR